Location: Monfort
(47.1967°N, 0.2115°W)
Time: 11:59:22
(UTC+00:00)

YAOGAN 1 - Pass Details

Date: 24 October 2020
Orbit: 618 x 620 km, 97.9° (Epoch: 27 November)

Event Time Altitude Azimuth Distance (km) Brightness Sun altitude
Rises 17:26:30 0° 126° (SE) 2,890 5.6 -5.7°
Reaches altitude 10° 17:29:07 10° 110° (ESE) 1,989 4.6 -6.2°
Maximum altitude 17:32:17 20° 63° (ENE) 1,437 3.9 -6.7°
Drops below altitude 10° 17:35:28 10° 16° (NNE) 1,999 4.9 -7.2°
Sets 17:38:06 0° 360° (N) 2,910 5.9 -7.7°
